Regional Weather Roundup
Issued by NWS Cleveland, OH

Home | Current Version | Previous Version | Text Only | Print | Product List | Glossary Off
Versions: 1 2 3 4 5 6 7 8 9 10 11 12 13 14 15 16 17 18 19 20 21 22 23 24 25 26 27 28 29 30 31 32 33 34 35 36 37 38 39 40 41 42 43 44 45 46 47 48 49 50

000
ASUS41 KCLE 262112
RWRCLE
OHIO REGIONAL WEATHER ROUNDUP
NATIONAL WEATHER SERVICE WILMINGTON, OH
500 PM EDT THU MAY 26 2016

NOTE: "FAIR" INDICATES FEW OR NO CLOUDS BELOW 12,000 FEET WITH NO
SIGNIFICANT WEATHER AND/OR OBSTRUCTIONS TO VISIBILITY.

OHZ001>008-015>018-024>027-034-035-043-044-262200-
   NORTHWEST OHIO

CITY           SKY/WX    TMP DP  RH WIND       PRES   REMARKS
DEFIANCE       FAIR      84  64  50 SW12G20   29.92S
FINDLAY        FAIR      84  65  52 SW13      29.93F
TOLEDO EXPRESS FAIR      84  63  49 S13       29.91S
TOLEDO EXEC    PTSUNNY   86  63  45 SW13G20   29.92S
LIMA           FAIR      80  66  62 S12       29.95F
$$

OHZ009>014-019>023-028>033-038-089-262200-
   NORTHEAST OHIO

CITY           SKY/WX    TMP DP  RH WIND       PRES   REMARKS
CLE-HOPKINS    PTSUNNY   84  64  50 S14G20    29.97F
CLE-LAKEFRONT  FAIR      84  63  49 S9G21     29.94F
CUY CO. ARPT   PTSUNNY   84  64  51 S15G23    29.97F
LORAIN-ELYRIA  FAIR      83  62  49 SW12      29.96F
ASHTABULA      PTSUNNY   82  62  50 S13       29.99F
AKRON-CANTON   PTSUNNY   81  63  54 SW13      30.00F
WOOSTER        PTSUNNY   82  62  50 SW8       29.99F
MANSFIELD      PTSUNNY   80  64  58 S10       29.99F
YOUNGSTOWN     PTSUNNY   81  62  52 SW15G21   30.01F
$$

OHZ042-051>053-060>062-070>072-077>081-262200-
  SOUTHWEST OHIO

CITY           SKY/WX    TMP DP  RH WIND       PRES   REMARKS
CINC-COVINGTON CLOUDY    69  66  90 SE5       30.01F
CINC-LUNKEN    FAIR      67  65  93 SW8       30.00F
HAMILTON       FAIR      72  68  87 VRB6      29.99R
DAYTON         PTSUNNY   79  67  66 S16       29.98F
WRIGHT-PAT AFB PTSUNNY   79  69  70 S13       29.97F
DAYTON GENERAL FAIR      76  66  71 SW12      29.98F
WILMINGTON     PTSUNNY   77  67  71 S14       30.00F
$$

OHZ036-037-039>041-045>050-054>059-063>069-073>076-082>088-262200-
  CENTRAL AND SOUTHEAST OHIO

CITY           SKY/WX    TMP DP  RH WIND       PRES   REMARKS
COLUMBUS       CLOUDY    80  65  59 S12       29.99F
OSU AIRPORT    PTSUNNY   81  66  60 S15       29.98F
BOLTON FIELD   PTSUNNY   81  66  61 S13       30.00F
RICKENBACK AFB PTSUNNY   78  65  65 S13G20    29.99F
NEWARK         CLOUDY    80  65  59 S12       30.00F
MARION         FAIR      81  66  60 S15       29.97F
LANCASTER      CLOUDY    78  65  63 S10       30.02F
ZANESVILLE     PTSUNNY   82  66  58 SW7G16    30.02F
NEW PHILLY     FAIR      83  63  50 S10       30.01F
$$




USA.gov is the U.S. government's official web portal to all federal, state and local government web resources and services.